Year,Month,Day,Hour,Minute,Value (Times are PST for temperature in C)
2008,11,02,00,00,12.80
2008,11,02,00,01,12.70
2008,11,02,00,02,12.70
2008,11,02,00,03,12.70
2008,11,02,00,04,12.70
2008,11,02,00,05,12.70
2008,11,02,00,06,12.70
2008,11,02,00,07,12.70
2008,11,02,00,08,12.70
2008,11,02,00,09,12.70
2008,11,02,00,10,12.70
2008,11,02,00,11,12.70
2008,11,02,00,12,12.70
2008,11,02,00,13,12.70
2008,11,02,00,14,12.70
2008,11,02,00,15,12.60
2008,11,02,00,16,12.60
2008,11,02,00,17,12.60
2008,11,02,00,18,12.70
2008,11,02,00,19,12.70
2008,11,02,00,20,12.60
2008,11,02,00,21,12.70
2008,11,02,00,22,12.70
2008,11,02,00,23,12.70
2008,11,02,00,24,12.70
2008,11,02,00,25,12.70
2008,11,02,00,26,12.70
2008,11,02,00,27,12.70
2008,11,02,00,28,12.70
2008,11,02,00,29,12.70
2008,11,02,00,30,12.70
2008,11,02,00,31,12.70
2008,11,02,00,32,12.70
2008,11,02,00,33,12.70
2008,11,02,00,34,12.80
2008,11,02,00,35,12.80
2008,11,02,00,36,12.80
2008,11,02,00,37,12.80
2008,11,02,00,38,12.70
2008,11,02,00,39,12.70
2008,11,02,00,40,12.70
2008,11,02,00,41,12.70
2008,11,02,00,42,12.70
2008,11,02,00,43,12.80
2008,11,02,00,44,12.80
2008,11,02,00,45,12.80
2008,11,02,00,46,12.80
2008,11,02,00,47,12.80
2008,11,02,00,48,12.80
2008,11,02,00,49,12.80
2008,11,02,00,50,12.80
2008,11,02,00,51,12.80
2008,11,02,00,52,12.70
2008,11,02,00,53,12.70
2008,11,02,00,54,12.70
2008,11,02,00,55,12.70
2008,11,02,00,56,12.70
2008,11,02,00,57,12.70
2008,11,02,00,58,12.70
2008,11,02,00,59,12.70
2008,11,02,01,00,12.70
2008,11,02,01,01,12.70
2008,11,02,01,02,12.70
2008,11,02,01,03,12.70
2008,11,02,01,04,12.70
2008,11,02,01,05,12.70
2008,11,02,01,06,12.70
2008,11,02,01,07,12.70
2008,11,02,01,08,12.70
2008,11,02,01,09,12.80
2008,11,02,01,10,12.80
2008,11,02,01,11,12.80
2008,11,02,01,12,12.80
2008,11,02,01,13,12.80
2008,11,02,01,14,12.80
2008,11,02,01,15,12.80
2008,11,02,01,16,12.80
2008,11,02,01,17,12.80
2008,11,02,01,18,12.80
2008,11,02,01,19,12.80
2008,11,02,01,20,12.80
2008,11,02,01,21,12.80
2008,11,02,01,22,12.80
2008,11,02,01,23,12.80
2008,11,02,01,24,12.80
2008,11,02,01,25,12.90
2008,11,02,01,26,12.90
2008,11,02,01,27,12.90
2008,11,02,01,28,12.90
2008,11,02,01,29,12.90
2008,11,02,01,30,12.90
2008,11,02,01,31,12.90
2008,11,02,01,32,12.90
2008,11,02,01,33,12.90
2008,11,02,01,34,12.90
2008,11,02,01,35,12.90
2008,11,02,01,36,12.90
2008,11,02,01,37,12.90
2008,11,02,01,38,12.90
2008,11,02,01,39,12.80
2008,11,02,01,40,12.80
2008,11,02,01,41,12.80
2008,11,02,01,42,12.80
2008,11,02,01,43,12.80
2008,11,02,01,44,12.80
2008,11,02,01,45,12.80
2008,11,02,01,46,12.80
2008,11,02,01,47,12.80
2008,11,02,01,48,12.80
2008,11,02,01,49,12.80
2008,11,02,01,50,12.80
2008,11,02,01,51,12.80
2008,11,02,01,52,12.80
2008,11,02,01,53,12.80
2008,11,02,01,54,12.80
2008,11,02,01,55,12.80
2008,11,02,01,56,12.80
2008,11,02,01,57,12.80
2008,11,02,01,58,12.80
2008,11,02,01,59,12.80
2008,11,02,02,02,11.60
2008,11,02,02,03,11.60
2008,11,02,02,04,11.60
2008,11,02,02,05,11.60
2008,11,02,02,06,11.60
2008,11,02,02,07,11.60
2008,11,02,02,08,11.50
2008,11,02,02,09,11.50
2008,11,02,02,10,11.40
2008,11,02,02,11,11.40
2008,11,02,02,12,11.40
2008,11,02,02,13,11.40
2008,11,02,02,14,11.40
2008,11,02,02,15,11.30
2008,11,02,02,16,11.30
2008,11,02,02,17,11.30
2008,11,02,02,18,11.30
2008,11,02,02,19,11.30
2008,11,02,02,20,11.30
2008,11,02,02,21,11.20
2008,11,02,02,22,11.20
2008,11,02,02,23,11.20
2008,11,02,02,24,11.20
2008,11,02,02,25,11.20
2008,11,02,02,26,11.20
2008,11,02,02,27,11.30
2008,11,02,02,28,11.30
2008,11,02,02,29,11.30
2008,11,02,02,30,11.30
2008,11,02,02,31,11.30
2008,11,02,02,32,11.30
2008,11,02,02,33,11.30
2008,11,02,02,34,11.30
2008,11,02,02,35,11.40
2008,11,02,02,36,11.50
2008,11,02,02,37,11.70
2008,11,02,02,38,11.80
2008,11,02,02,39,12.00
2008,11,02,02,40,12.10
2008,11,02,02,41,12.20
2008,11,02,02,42,12.30
2008,11,02,02,43,12.40
2008,11,02,02,44,12.40
2008,11,02,02,45,12.50
2008,11,02,02,46,12.50
2008,11,02,02,47,12.50
2008,11,02,02,48,12.60
2008,11,02,02,49,12.60
2008,11,02,02,50,12.60
2008,11,02,02,51,12.60
2008,11,02,02,52,12.60
2008,11,02,02,53,12.60
2008,11,02,02,54,12.60
2008,11,02,02,55,12.60
2008,11,02,02,56,12.60
2008,11,02,02,57,12.60
2008,11,02,02,58,12.60
2008,11,02,02,59,12.60
2008,11,02,03,00,12.50
2008,11,02,03,01,12.50
2008,11,02,03,02,12.60
2008,11,02,03,03,12.50
2008,11,02,03,04,12.50
2008,11,02,03,05,12.60
2008,11,02,03,06,12.50
2008,11,02,03,07,12.50
2008,11,02,03,08,12.50
2008,11,02,03,09,12.50
2008,11,02,03,10,12.50
2008,11,02,03,11,12.60
2008,11,02,03,12,12.50
2008,11,02,03,13,12.50
2008,11,02,03,14,12.50
2008,11,02,03,15,12.50
2008,11,02,03,16,12.50
2008,11,02,03,17,12.50
2008,11,02,03,18,12.50
2008,11,02,03,19,12.40
2008,11,02,03,20,12.40
2008,11,02,03,21,12.40
2008,11,02,03,22,12.40
2008,11,02,03,23,12.40
2008,11,02,03,24,12.40
2008,11,02,03,25,12.50
2008,11,02,03,26,12.50
2008,11,02,03,27,12.50
2008,11,02,03,28,12.60
2008,11,02,03,29,12.60
2008,11,02,03,30,12.60
2008,11,02,03,31,12.60
2008,11,02,03,32,12.60
2008,11,02,03,33,12.60
2008,11,02,03,34,12.60
2008,11,02,03,35,12.60
2008,11,02,03,36,12.60
2008,11,02,03,37,12.60
2008,11,02,03,38,12.60
2008,11,02,03,39,12.70
2008,11,02,03,40,12.70
2008,11,02,03,41,12.70
2008,11,02,03,42,12.70
2008,11,02,03,43,12.70
2008,11,02,03,44,12.70
2008,11,02,03,45,12.80
2008,11,02,03,46,12.80
2008,11,02,03,47,12.80
2008,11,02,03,48,12.80
2008,11,02,03,49,12.80
2008,11,02,03,50,12.80
2008,11,02,03,51,12.80
2008,11,02,03,52,12.80
2008,11,02,03,53,12.80
2008,11,02,03,54,12.80
2008,11,02,03,55,12.80
2008,11,02,03,56,12.90
2008,11,02,03,57,12.90
2008,11,02,03,58,12.90
2008,11,02,03,59,12.90
2008,11,02,04,00,12.80
2008,11,02,04,01,12.80
2008,11,02,04,02,12.80
2008,11,02,04,03,12.80
2008,11,02,04,04,12.80
2008,11,02,04,05,12.70
2008,11,02,04,09,12.70
2008,11,02,04,12,12.60
2008,11,02,04,14,12.60
2008,11,02,04,15,12.60
2008,11,02,04,16,12.60
2008,11,02,04,17,12.50
2008,11,02,04,18,12.60
2008,11,02,04,19,12.60
2008,11,02,04,20,12.60
2008,11,02,04,21,12.60
2008,11,02,04,22,12.60
2008,11,02,04,23,12.60
2008,11,02,04,26,12.50
2008,11,02,04,27,12.50
2008,11,02,04,29,12.60
2008,11,02,04,30,12.60
2008,11,02,04,32,12.50
2008,11,02,04,34,12.40
2008,11,02,04,35,12.40
2008,11,02,04,36,12.40
2008,11,02,04,37,12.40
2008,11,02,04,38,12.40
2008,11,02,04,39,12.30
2008,11,02,04,40,12.30
2008,11,02,04,41,12.30
2008,11,02,04,42,12.30
2008,11,02,04,43,12.30
2008,11,02,04,44,12.30
2008,11,02,04,45,12.30
2008,11,02,04,46,12.30
2008,11,02,04,47,12.30
2008,11,02,04,48,12.30
2008,11,02,04,49,12.30
2008,11,02,04,50,12.30
2008,11,02,04,51,12.30
2008,11,02,04,52,12.30
2008,11,02,04,53,12.30
2008,11,02,04,54,12.30
2008,11,02,04,55,12.20
2008,11,02,04,56,12.20
2008,11,02,04,57,12.20
2008,11,02,04,58,12.20
2008,11,02,04,59,12.20
2008,11,02,05,00,12.20
2008,11,02,05,01,12.20
2008,11,02,05,02,12.20
2008,11,02,05,03,12.20
2008,11,02,05,04,12.20
2008,11,02,05,05,12.20
2008,11,02,05,06,12.20
2008,11,02,05,07,12.20
2008,11,02,05,08,12.10
2008,11,02,05,09,12.10
2008,11,02,05,10,12.00
2008,11,02,05,11,12.00
2008,11,02,05,12,11.90
2008,11,02,05,13,11.90
2008,11,02,05,14,11.80
2008,11,02,05,15,11.80
2008,11,02,05,16,11.80
2008,11,02,05,17,11.80
2008,11,02,05,18,11.70
2008,11,02,05,19,11.70
2008,11,02,05,20,11.70
2008,11,02,05,21,11.60
2008,11,02,05,22,11.60
2008,11,02,05,23,11.60
2008,11,02,05,24,11.60
2008,11,02,05,25,11.60
2008,11,02,05,26,11.50
2008,11,02,05,27,11.50
2008,11,02,05,28,11.50
2008,11,02,05,29,11.40
2008,11,02,05,30,11.40
2008,11,02,05,31,11.40
2008,11,02,05,32,11.40
2008,11,02,05,33,11.30
2008,11,02,05,34,11.40
2008,11,02,05,35,11.50
2008,11,02,05,36,11.60
2008,11,02,05,37,11.60
2008,11,02,05,38,11.60
2008,11,02,05,39,11.60
2008,11,02,05,40,11.60
2008,11,02,05,41,11.60
2008,11,02,05,42,11.60
2008,11,02,05,43,11.70
2008,11,02,05,44,11.80
2008,11,02,05,45,11.80
2008,11,02,05,46,11.80
2008,11,02,05,47,11.80
2008,11,02,05,48,11.80
2008,11,02,05,49,11.80
2008,11,02,05,50,11.80
2008,11,02,05,51,11.80
2008,11,02,05,52,11.90
2008,11,02,05,53,11.90
2008,11,02,05,54,12.10
2008,11,02,05,55,12.20
2008,11,02,05,56,12.20
2008,11,02,05,57,12.30
2008,11,02,05,58,12.30
2008,11,02,05,59,12.40
2008,11,02,06,00,12.40
2008,11,02,06,01,12.50
2008,11,02,06,02,12.50
2008,11,02,06,03,12.60
2008,11,02,06,04,12.60
2008,11,02,06,05,12.60
2008,11,02,06,06,12.60
2008,11,02,06,07,12.70
2008,11,02,06,08,12.70
2008,11,02,06,09,12.60
2008,11,02,06,10,12.60
2008,11,02,06,11,12.60
2008,11,02,06,12,12.60
2008,11,02,06,13,12.50
2008,11,02,06,14,12.40
2008,11,02,06,15,12.40
2008,11,02,06,16,12.30
2008,11,02,06,17,12.20
2008,11,02,06,18,12.20
2008,11,02,06,19,12.10
2008,11,02,06,20,12.10
2008,11,02,06,21,12.10
2008,11,02,06,22,12.10
2008,11,02,06,23,12.10
2008,11,02,06,24,12.00
2008,11,02,06,25,12.00
2008,11,02,06,26,12.00
2008,11,02,06,27,11.90
2008,11,02,06,28,11.90
2008,11,02,06,29,11.80
2008,11,02,06,30,11.80
2008,11,02,06,31,11.80
2008,11,02,06,32,11.70
2008,11,02,06,33,11.70
2008,11,02,06,34,11.60
2008,11,02,06,35,11.60
2008,11,02,06,36,11.60
2008,11,02,06,37,11.60
2008,11,02,06,38,11.50
2008,11,02,06,39,11.50
2008,11,02,06,40,11.50
2008,11,02,06,41,11.50
2008,11,02,06,42,11.50
2008,11,02,06,43,11.40
2008,11,02,06,44,11.40
2008,11,02,06,45,11.40
2008,11,02,06,46,11.40
2008,11,02,06,47,11.40
2008,11,02,06,48,11.40
2008,11,02,06,49,11.50
2008,11,02,06,50,11.60
2008,11,02,06,51,11.60
2008,11,02,06,52,11.60
2008,11,02,06,53,11.60
2008,11,02,06,54,11.60
2008,11,02,06,55,11.50
2008,11,02,06,56,11.50
2008,11,02,06,57,11.40
2008,11,02,06,58,11.30
2008,11,02,06,59,11.30
2008,11,02,07,00,11.30
2008,11,02,07,01,11.20
2008,11,02,07,02,11.20
2008,11,02,07,03,11.20
2008,11,02,07,04,11.20
2008,11,02,07,05,11.10
2008,11,02,07,06,11.10
2008,11,02,07,07,11.10
2008,11,02,07,08,11.10
2008,11,02,07,09,11.00
2008,11,02,07,10,11.00
2008,11,02,07,11,10.90
2008,11,02,07,12,10.90
2008,11,02,07,13,10.80
2008,11,02,07,14,10.80
2008,11,02,07,15,10.70
2008,11,02,07,16,10.70
2008,11,02,07,17,10.70
2008,11,02,07,18,10.60
2008,11,02,07,19,10.70
2008,11,02,07,20,10.70
2008,11,02,07,21,10.70
2008,11,02,07,22,10.70
2008,11,02,07,23,10.70
2008,11,02,07,24,10.70
2008,11,02,07,25,10.70
2008,11,02,07,26,10.70
2008,11,02,07,27,10.80
2008,11,02,07,28,10.80
2008,11,02,07,29,10.90
2008,11,02,07,30,11.00
2008,11,02,07,31,11.00
2008,11,02,07,32,11.10
2008,11,02,07,33,11.10
2008,11,02,07,34,11.20
2008,11,02,07,35,11.30
2008,11,02,07,36,11.40
2008,11,02,07,37,11.50
2008,11,02,07,38,11.60
2008,11,02,07,39,11.70
2008,11,02,07,40,11.80
2008,11,02,07,41,11.90
2008,11,02,07,42,11.90
2008,11,02,07,43,11.90
2008,11,02,07,44,11.90
2008,11,02,07,45,11.90
2008,11,02,07,46,11.90
2008,11,02,07,47,11.80
2008,11,02,07,48,11.80
2008,11,02,07,49,11.80
2008,11,02,07,50,11.80
2008,11,02,07,51,11.90
2008,11,02,07,52,11.90
2008,11,02,07,53,12.00
2008,11,02,07,54,12.00
2008,11,02,07,55,12.10
2008,11,02,07,56,12.10
2008,11,02,07,57,12.10
2008,11,02,07,58,12.10
2008,11,02,07,59,12.10
2008,11,02,08,00,12.00
2008,11,02,08,01,12.00
2008,11,02,08,02,11.90
2008,11,02,08,03,11.80
2008,11,02,08,04,11.80
2008,11,02,08,05,11.70
2008,11,02,08,06,11.70
2008,11,02,08,07,11.60
2008,11,02,08,08,11.50
2008,11,02,08,09,11.50
2008,11,02,08,10,11.40
2008,11,02,08,11,11.40
2008,11,02,08,12,11.40
2008,11,02,08,13,11.30
2008,11,02,08,14,11.40
2008,11,02,08,15,11.40
2008,11,02,08,16,11.40
2008,11,02,08,17,11.40
2008,11,02,08,18,11.40
2008,11,02,08,19,11.30
2008,11,02,08,20,11.30
2008,11,02,08,21,11.40
2008,11,02,08,22,11.50
2008,11,02,08,23,11.50
2008,11,02,08,24,11.50
2008,11,02,08,25,11.60
2008,11,02,08,26,11.60
2008,11,02,08,27,11.70
2008,11,02,08,28,11.80
2008,11,02,08,29,11.80
2008,11,02,08,30,11.90
2008,11,02,08,31,12.00
2008,11,02,08,32,12.10
2008,11,02,08,33,12.20
2008,11,02,08,34,12.30
2008,11,02,08,35,12.40
2008,11,02,08,36,12.50
2008,11,02,08,37,12.50
2008,11,02,08,38,12.60
2008,11,02,08,39,12.60
2008,11,02,08,40,12.70
2008,11,02,08,41,12.70
2008,11,02,08,42,12.80
2008,11,02,08,43,12.80
2008,11,02,08,44,12.80
2008,11,02,08,45,12.80
2008,11,02,08,46,12.80
2008,11,02,08,47,12.80
2008,11,02,08,48,12.80
2008,11,02,08,49,12.80
2008,11,02,08,50,12.80
2008,11,02,08,51,12.80
2008,11,02,08,52,12.80
2008,11,02,08,53,12.80
2008,11,02,08,54,12.80
2008,11,02,08,55,12.70
2008,11,02,08,56,12.70
2008,11,02,08,57,12.70
2008,11,02,08,58,12.70
2008,11,02,08,59,12.70
2008,11,02,09,00,12.70
2008,11,02,09,01,12.70
2008,11,02,09,02,12.70
2008,11,02,09,03,12.70
2008,11,02,09,04,12.70
2008,11,02,09,05,12.70
2008,11,02,09,06,12.70
2008,11,02,09,07,12.70
2008,11,02,09,08,12.80
2008,11,02,09,09,12.80
2008,11,02,09,10,12.80
2008,11,02,09,11,12.80
2008,11,02,09,12,12.80
2008,11,02,09,13,12.80
2008,11,02,09,14,12.80
2008,11,02,09,15,12.80
2008,11,02,09,16,12.90
2008,11,02,09,17,12.90
2008,11,02,09,18,12.90
2008,11,02,09,19,12.90
2008,11,02,09,20,13.00
2008,11,02,09,21,13.00
2008,11,02,09,22,13.10
2008,11,02,09,23,13.10
2008,11,02,09,24,13.10
2008,11,02,09,25,13.20
2008,11,02,09,26,13.20
2008,11,02,09,27,13.20
2008,11,02,09,28,13.20
2008,11,02,09,29,13.20
2008,11,02,09,30,13.20
2008,11,02,09,31,13.20
2008,11,02,09,32,13.20
2008,11,02,09,33,13.20
2008,11,02,09,34,13.20
2008,11,02,09,35,13.20
2008,11,02,09,36,13.20
2008,11,02,09,37,13.30
2008,11,02,09,38,13.20
2008,11,02,09,39,13.20
2008,11,02,09,40,13.20
2008,11,02,09,41,13.20
2008,11,02,09,42,13.20
2008,11,02,09,43,13.30
2008,11,02,09,44,13.30
2008,11,02,09,45,13.30
2008,11,02,09,46,13.30
2008,11,02,09,47,13.30
2008,11,02,09,48,13.30
2008,11,02,09,49,13.30
2008,11,02,09,50,13.30
2008,11,02,09,51,13.30
2008,11,02,09,52,13.30
2008,11,02,09,53,13.30
2008,11,02,09,54,13.30
2008,11,02,09,55,13.30
2008,11,02,09,56,13.30
2008,11,02,09,57,13.30
2008,11,02,09,58,13.30
2008,11,02,09,59,13.30
2008,11,02,10,00,13.30
2008,11,02,10,01,13.30
2008,11,02,10,02,13.30
2008,11,02,10,03,13.30
2008,11,02,10,04,13.30
2008,11,02,10,05,13.30
2008,11,02,10,06,13.30
2008,11,02,10,07,13.30
2008,11,02,10,08,13.30
2008,11,02,10,09,13.30
2008,11,02,10,10,13.30
2008,11,02,10,11,13.30
2008,11,02,10,12,13.30
2008,11,02,10,13,13.30
2008,11,02,10,14,13.30
2008,11,02,10,15,13.30
2008,11,02,10,16,13.30
2008,11,02,10,17,13.30
2008,11,02,10,18,13.30
2008,11,02,10,19,13.30
2008,11,02,10,20,13.30
2008,11,02,10,21,13.30
2008,11,02,10,22,13.30
2008,11,02,10,23,13.30
2008,11,02,10,24,13.30
2008,11,02,10,25,13.30
2008,11,02,10,26,13.30
2008,11,02,10,27,13.30
2008,11,02,10,28,13.30
2008,11,02,10,29,13.30
2008,11,02,10,30,13.40
2008,11,02,10,31,13.40
2008,11,02,10,32,13.40
2008,11,02,10,33,13.40
2008,11,02,10,34,13.40
2008,11,02,10,35,13.40
2008,11,02,10,36,13.40
2008,11,02,10,37,13.50
2008,11,02,10,38,13.50
2008,11,02,10,39,13.60
2008,11,02,10,40,13.70
2008,11,02,10,41,13.70
2008,11,02,10,42,13.80
2008,11,02,10,43,13.80
2008,11,02,10,44,13.80
2008,11,02,10,45,13.90
2008,11,02,10,46,13.90
2008,11,02,10,47,13.80
2008,11,02,10,48,13.80
2008,11,02,10,49,13.80
2008,11,02,10,50,13.80
2008,11,02,10,51,13.80
2008,11,02,10,52,13.80
2008,11,02,10,53,13.90
2008,11,02,10,54,14.00
2008,11,02,10,55,14.10
2008,11,02,10,56,14.10
2008,11,02,10,57,14.10
2008,11,02,10,58,14.20
2008,11,02,10,59,14.20
2008,11,02,11,00,14.30
2008,11,02,11,01,14.30
2008,11,02,11,02,14.30
2008,11,02,11,03,14.30
2008,11,02,11,04,14.30
2008,11,02,11,05,14.30
2008,11,02,11,06,14.30
2008,11,02,11,07,14.30
2008,11,02,11,08,14.20
2008,11,02,11,09,14.20
2008,11,02,11,10,14.20
2008,11,02,11,11,14.10
2008,11,02,11,12,14.00
2008,11,02,11,13,13.90
2008,11,02,11,14,13.90
2008,11,02,11,15,13.80
2008,11,02,11,16,13.80
2008,11,02,11,17,13.80
2008,11,02,11,18,13.80
2008,11,02,11,19,13.80
2008,11,02,11,20,13.80
2008,11,02,11,21,13.80
2008,11,02,11,22,13.80
2008,11,02,11,23,13.70
2008,11,02,11,24,13.70
2008,11,02,11,25,13.60
2008,11,02,11,26,13.50
2008,11,02,11,27,13.50
2008,11,02,11,28,13.50
2008,11,02,11,29,13.40
2008,11,02,11,30,13.50
2008,11,02,11,31,13.50
2008,11,02,11,32,13.50
2008,11,02,11,33,13.40
2008,11,02,11,34,13.40
2008,11,02,11,35,13.40
2008,11,02,11,36,13.50
2008,11,02,11,37,13.40
2008,11,02,11,38,13.50
2008,11,02,11,39,13.50
2008,11,02,11,40,13.60
2008,11,02,11,41,13.70
2008,11,02,11,42,13.70
2008,11,02,11,43,13.80
2008,11,02,11,44,13.80
2008,11,02,11,45,13.90
2008,11,02,11,46,13.90
2008,11,02,11,47,13.90
2008,11,02,11,48,13.90
2008,11,02,11,49,13.90
2008,11,02,11,50,13.90
2008,11,02,11,51,13.90
2008,11,02,11,52,13.90
2008,11,02,11,53,13.90
2008,11,02,11,54,13.90
2008,11,02,11,55,13.90
2008,11,02,11,56,13.90
2008,11,02,11,57,13.90
2008,11,02,11,58,13.80
2008,11,02,11,59,13.80
2008,11,02,12,00,13.90
2008,11,02,12,01,13.90
2008,11,02,12,02,13.90
2008,11,02,12,03,14.00
2008,11,02,12,04,14.00
2008,11,02,12,05,14.10
2008,11,02,12,06,14.10
2008,11,02,12,07,14.10
2008,11,02,12,08,14.10
2008,11,02,12,09,14.10
2008,11,02,12,10,14.10
2008,11,02,12,11,14.20
2008,11,02,12,12,14.20
2008,11,02,12,13,14.20
2008,11,02,12,14,14.20
2008,11,02,12,15,14.20
2008,11,02,12,16,14.20
2008,11,02,12,17,14.20
2008,11,02,12,18,14.10
2008,11,02,12,19,14.10
2008,11,02,12,20,14.10
2008,11,02,12,21,14.10
2008,11,02,12,22,14.10
2008,11,02,12,23,14.10
2008,11,02,12,24,14.00
2008,11,02,12,25,14.00
2008,11,02,12,26,13.90
2008,11,02,12,27,13.90
2008,11,02,12,28,13.90
2008,11,02,12,29,13.80
2008,11,02,12,30,13.70
2008,11,02,12,31,13.60
2008,11,02,12,32,13.50
2008,11,02,12,33,13.30
2008,11,02,12,34,13.10
2008,11,02,12,35,12.90
2008,11,02,12,36,12.80
2008,11,02,12,37,12.60
2008,11,02,12,38,12.50
2008,11,02,12,39,12.40
2008,11,02,12,40,12.30
2008,11,02,12,41,12.30
2008,11,02,12,42,12.20
2008,11,02,12,43,12.10
2008,11,02,12,44,12.00
2008,11,02,12,45,11.90
2008,11,02,12,46,11.90
2008,11,02,12,47,11.90
2008,11,02,12,48,11.80
2008,11,02,12,49,11.80
2008,11,02,12,50,11.70
2008,11,02,12,51,11.70
2008,11,02,12,52,11.70
2008,11,02,12,53,11.70
2008,11,02,12,54,11.60
2008,11,02,12,55,11.60
2008,11,02,12,56,11.60
2008,11,02,12,57,11.60
2008,11,02,12,58,11.60
2008,11,02,12,59,11.60
2008,11,02,13,00,11.60
2008,11,02,13,01,11.60
2008,11,02,13,02,11.60
2008,11,02,13,03,11.60
2008,11,02,13,04,11.60
2008,11,02,13,05,11.60
2008,11,02,13,06,11.60
2008,11,02,13,07,11.50
2008,11,02,13,08,11.50
2008,11,02,13,09,11.50
2008,11,02,13,10,11.50
2008,11,02,13,11,11.50
2008,11,02,13,12,11.50
2008,11,02,13,13,11.50
2008,11,02,13,14,11.50
2008,11,02,13,15,11.50
2008,11,02,13,16,11.50
2008,11,02,13,17,11.50
2008,11,02,13,18,11.50
2008,11,02,13,19,11.60
2008,11,02,13,20,11.60
2008,11,02,13,21,11.70
2008,11,02,13,22,11.80
2008,11,02,13,23,11.80
2008,11,02,13,24,11.80
2008,11,02,13,25,11.80
2008,11,02,13,26,11.90
2008,11,02,13,27,11.90
2008,11,02,13,28,11.90
2008,11,02,13,29,11.90
2008,11,02,13,30,11.90
2008,11,02,13,31,11.90
2008,11,02,13,32,11.90
2008,11,02,13,33,12.00
2008,11,02,13,34,12.00
2008,11,02,13,35,12.00
2008,11,02,13,36,12.10
2008,11,02,13,37,12.10
2008,11,02,13,38,12.20
2008,11,02,13,39,12.20
2008,11,02,13,40,12.20
2008,11,02,13,41,12.30
2008,11,02,13,42,12.40
2008,11,02,13,43,12.40
2008,11,02,13,44,12.50
2008,11,02,13,45,12.60
2008,11,02,13,46,12.70
2008,11,02,13,47,12.70
2008,11,02,13,48,12.70
2008,11,02,13,49,12.80
2008,11,02,13,50,12.90
2008,11,02,13,51,13.00
2008,11,02,13,52,13.10
2008,11,02,13,53,13.10
2008,11,02,13,54,13.10
2008,11,02,13,55,13.10
2008,11,02,13,56,13.10
2008,11,02,13,57,13.10
2008,11,02,13,58,13.10
2008,11,02,13,59,13.10
2008,11,02,14,00,13.10
2008,11,02,14,01,13.10
2008,11,02,14,02,13.10
2008,11,02,14,03,13.10
2008,11,02,14,04,13.00
2008,11,02,14,05,13.00
2008,11,02,14,06,13.10
2008,11,02,14,07,13.10
2008,11,02,14,08,13.10
2008,11,02,14,09,13.10
2008,11,02,14,10,13.00
2008,11,02,14,11,13.00
2008,11,02,14,12,12.90
2008,11,02,14,13,12.90
2008,11,02,14,14,12.80
2008,11,02,14,15,12.80
2008,11,02,14,16,12.80
2008,11,02,14,17,12.70
2008,11,02,14,18,12.70
2008,11,02,14,19,12.70
2008,11,02,14,20,12.60
2008,11,02,14,21,12.60
2008,11,02,14,22,12.60
2008,11,02,14,23,12.60
2008,11,02,14,24,12.60
2008,11,02,14,25,12.60
2008,11,02,14,26,12.50
2008,11,02,14,27,12.50
2008,11,02,14,28,12.40
2008,11,02,14,29,12.40
2008,11,02,14,30,12.40
2008,11,02,14,31,12.30
2008,11,02,14,32,12.20
2008,11,02,14,33,12.00
2008,11,02,14,34,11.90
2008,11,02,14,35,11.80
2008,11,02,14,36,11.70
2008,11,02,14,37,11.60
2008,11,02,14,38,11.60
2008,11,02,14,39,11.50
2008,11,02,14,40,11.50
2008,11,02,14,41,11.40
2008,11,02,14,42,11.30
2008,11,02,14,43,11.30
2008,11,02,14,44,11.20
2008,11,02,14,45,11.20
2008,11,02,14,46,11.20
2008,11,02,14,47,11.20
2008,11,02,14,48,11.10
2008,11,02,14,49,11.10
2008,11,02,14,50,11.10
2008,11,02,14,51,11.10
2008,11,02,14,52,11.10
2008,11,02,14,53,11.10
2008,11,02,14,54,11.10
2008,11,02,14,55,11.10
2008,11,02,14,56,11.10
2008,11,02,14,57,11.10
2008,11,02,14,58,11.20
2008,11,02,14,59,11.20
2008,11,02,15,00,11.20
2008,11,02,15,01,11.20
2008,11,02,15,02,11.20
2008,11,02,15,03,11.30
2008,11,02,15,04,11.30
2008,11,02,15,05,11.30
2008,11,02,15,06,11.30
2008,11,02,15,07,11.30
2008,11,02,15,08,11.30
2008,11,02,15,09,11.30
2008,11,02,15,10,11.40
2008,11,02,15,11,11.50
2008,11,02,15,12,11.60
2008,11,02,15,13,11.70
2008,11,02,15,14,11.80
2008,11,02,15,15,11.80
2008,11,02,15,16,11.90
2008,11,02,15,17,12.00
2008,11,02,15,18,12.00
2008,11,02,15,19,12.10
2008,11,02,15,20,12.10
2008,11,02,15,21,12.10
2008,11,02,15,22,12.10
2008,11,02,15,23,12.10
2008,11,02,15,24,12.10
2008,11,02,15,25,12.00
2008,11,02,15,26,12.00
2008,11,02,15,27,11.90
2008,11,02,15,28,11.90
2008,11,02,15,29,11.90
2008,11,02,15,30,11.80
2008,11,02,15,31,11.80
2008,11,02,15,32,11.80
2008,11,02,15,33,11.80
2008,11,02,15,34,11.80
2008,11,02,15,35,11.70
2008,11,02,15,36,11.70
2008,11,02,15,37,11.60
2008,11,02,15,38,11.60
2008,11,02,15,39,11.50
2008,11,02,15,40,11.40
2008,11,02,15,41,11.40
2008,11,02,15,42,11.40
2008,11,02,15,43,11.30
2008,11,02,15,44,11.30
2008,11,02,15,45,11.30
2008,11,02,15,46,11.30
2008,11,02,15,47,11.30
2008,11,02,15,48,11.30
2008,11,02,15,49,11.30
2008,11,02,15,50,11.30
2008,11,02,15,51,11.30
2008,11,02,15,52,11.20
2008,11,02,15,53,11.20
2008,11,02,15,54,11.20
2008,11,02,15,55,11.20
2008,11,02,15,56,11.20
2008,11,02,15,57,11.20
2008,11,02,15,58,11.10
2008,11,02,15,59,11.10
2008,11,02,16,00,11.20
2008,11,02,16,01,11.20
2008,11,02,16,02,11.20
2008,11,02,16,03,11.10
2008,11,02,16,04,11.10
2008,11,02,16,05,11.10
2008,11,02,16,06,11.10
2008,11,02,16,07,11.10
2008,11,02,16,08,11.10
2008,11,02,16,09,11.20
2008,11,02,16,10,11.20
2008,11,02,16,11,11.20
2008,11,02,16,12,11.20
2008,11,02,16,13,11.20
2008,11,02,16,14,11.20
2008,11,02,16,15,11.20
2008,11,02,16,16,11.10
2008,11,02,16,17,11.10
2008,11,02,16,18,11.10
2008,11,02,16,19,11.10
2008,11,02,16,20,11.10
2008,11,02,16,21,11.10
2008,11,02,16,22,11.20
2008,11,02,16,23,11.20
2008,11,02,16,24,11.20
2008,11,02,16,25,11.20
2008,11,02,16,26,11.20
2008,11,02,16,27,11.20
2008,11,02,16,28,11.20
2008,11,02,16,29,11.10
2008,11,02,16,30,11.10
2008,11,02,16,31,11.10
2008,11,02,16,32,11.10
2008,11,02,16,33,11.10
2008,11,02,16,34,11.10
2008,11,02,16,35,11.10
2008,11,02,16,36,11.10
2008,11,02,16,37,11.10
2008,11,02,16,38,11.10
2008,11,02,16,39,11.10
2008,11,02,16,40,11.10
2008,11,02,16,41,11.00
2008,11,02,16,42,11.00
2008,11,02,16,43,11.00
2008,11,02,16,44,10.90
2008,11,02,16,45,10.80
2008,11,02,16,46,10.80
2008,11,02,16,47,10.80
2008,11,02,16,48,10.70
2008,11,02,16,49,10.60
2008,11,02,16,50,10.60
2008,11,02,16,51,10.60
2008,11,02,16,52,10.50
2008,11,02,16,53,10.50
2008,11,02,16,54,10.50
2008,11,02,16,55,10.50
2008,11,02,16,56,10.50
2008,11,02,16,57,10.50
2008,11,02,16,58,10.50
2008,11,02,16,59,10.50
2008,11,02,17,00,10.50
2008,11,02,17,01,10.50
2008,11,02,17,02,10.50
2008,11,02,17,03,10.50
2008,11,02,17,04,10.50
2008,11,02,17,05,10.50
2008,11,02,17,06,10.50
2008,11,02,17,07,10.40
2008,11,02,17,08,10.40
2008,11,02,17,09,10.40
2008,11,02,17,10,10.30
2008,11,02,17,11,10.30
2008,11,02,17,12,10.30
2008,11,02,17,13,10.30
2008,11,02,17,14,10.30
2008,11,02,17,15,10.20
2008,11,02,17,16,10.30
2008,11,02,17,17,10.30
2008,11,02,17,18,10.30
2008,11,02,17,19,10.30
2008,11,02,17,20,10.30
2008,11,02,17,21,10.30
2008,11,02,17,22,10.20
2008,11,02,17,23,10.20
2008,11,02,17,24,10.20
2008,11,02,17,25,10.10
2008,11,02,17,26,10.10
2008,11,02,17,27,10.10
2008,11,02,17,28,10.00
2008,11,02,17,29,10.00
2008,11,02,17,30,10.00
2008,11,02,17,31,10.00
2008,11,02,17,32,10.00